Change the Weather History Date:

Monday, June 3, 2013

  Actual Average (KEFC) Record (KEFC)
Temperature  
Mean Temperature 56 °F -  
Max Temperature 68 °F 78 °F 100 °F (1968)
Min Temperature 44 °F 48 °F 29 °F (1951)
Degree Days  
Heating Degree Days 9    
Growing Degree Days 6 (Base 50)    
Moisture  
Dew Point 45 °F    
Average Humidity 70    
Maximum Humidity 100    
Minimum Humidity 35    
Precipitation  
Precipitation 0.00 in - - ()
Sea Level Pressure  
Sea Level Pressure 29.76 in    
Wind  
Wind Speed 14 mph (NW)    
Max Wind Speed 23 mph    
Max Gust Speed 31 mph    
Visibility 9 miles    
Events Fog    
Averages and records for this station are not official NWS values.
T = Trace of Precipitation, MM = Missing Value Source: NWS Daily Summary

Daily Weather History Graph

Daily Weather History Graph

Search for Another Location

Airport or City:

Trip Planner

Search our weather history database for the weather conditions in past years. The results will help you decide how hot, cold, wet, or windy it might be!

Date:

Astronomy

Jun. 03, 2013 Rise Set
Actual Time 6:12 AM CDT 9:34 PM CDT
Civil Twilight 5:36 AM CDT 10:10 PM CDT
Nautical Twilight 4:49 AM CDT 10:57 PM CDT
Astronomical Twilight 3:50 AM CDT 11:57 PM CDT
Moon 3:21 AM CDT (6/3) 4:58 PM CDT (6/3)
Length of Visible Light 16h 34m
Length of Day
15h 22m
Waning Crescent, 22% of the Moon is Illuminated
Jun 3
Waning Crescent
Jun 8
New
Jun 16
First Quarter
Jun 23
Full
Jun 29
Last Quarter

Hourly Weather History & Observations

Time (CDT) Temp. Windchill Dew Point Humidity Pressure Visibility Wind Dir Wind Speed Gust Speed Precip Events Conditions
12:15 AM 53.6 °F - 48.2 °F 82% 29.76 in 10.0 mi East 23.0 mph 31.1 mph N/A   Clear
12:35 AM 53.6 °F - 48.2 °F 82% 29.74 in 10.0 mi East 19.6 mph 27.6 mph N/A   Clear
12:55 AM 53.6 °F - 48.2 °F 82% 29.71 in 10.0 mi ENE 21.9 mph 29.9 mph N/A   Clear
1:15 AM 53.6 °F - 48.2 °F 82% 29.70 in 10.0 mi NE 20.7 mph 25.3 mph N/A   Clear
1:35 AM 53.6 °F - 46.4 °F 77% 29.69 in 10.0 mi ENE 19.6 mph - N/A   Clear
1:55 AM 55.4 °F - 46.4 °F 72% 29.68 in 10.0 mi East 15.0 mph 21.9 mph N/A   Clear
2:15 AM 57.2 °F - 46.4 °F 67% 29.66 in 10.0 mi East 13.8 mph 18.4 mph N/A   Clear
2:35 AM 55.4 °F - 46.4 °F 72% 29.66 in 10.0 mi North 5.8 mph - N/A   Clear
2:55 AM 50.0 °F - 46.4 °F 87% 29.65 in 10.0 mi WSW 5.8 mph - N/A   Clear
3:15 AM 48.2 °F - 46.4 °F 93% 29.64 in 10.0 mi WNW 5.8 mph - N/A   Clear
3:35 AM 46.4 °F 43.5 °F 46.4 °F 100% 29.63 in 10.0 mi WNW 5.8 mph - N/A   Clear
3:55 AM 46.4 °F 43.5 °F 46.4 °F 100% 29.62 in 10.0 mi WNW 5.8 mph - N/A   Clear
4:15 AM 46.4 °F 43.5 °F 46.4 °F 100% 29.62 in 10.0 mi WNW 5.8 mph - N/A   Clear
4:35 AM 46.4 °F 44.3 °F 46.4 °F 100% 29.61 in 10.0 mi WSW 4.6 mph - N/A   Clear
4:55 AM 46.4 °F 45.2 °F 46.4 °F 100% 29.61 in 10.0 mi West 3.5 mph - N/A   Clear
5:15 AM 46.4 °F - 46.4 °F 100% 29.60 in 10.0 mi Calm Calm - N/A   Clear
5:35 AM 44.6 °F 42.2 °F 44.6 °F 100% 29.60 in 10.0 mi WNW 4.6 mph - N/A   Clear
5:55 AM 44.6 °F 39.7 °F 44.6 °F 100% 29.61 in 9.0 mi West 9.2 mph - N/A   Clear
6:15 AM 46.4 °F 41.9 °F 46.4 °F 100% 29.63 in 0.2 mi West 9.2 mph - N/A Fog Fog
6:35 AM 46.4 °F 41.1 °F 46.4 °F 100% 29.65 in 0.2 mi WNW 11.5 mph 16.1 mph N/A Fog Fog
6:55 AM 46.4 °F 40.1 °F 46.4 °F 100% 29.66 in 0.2 mi West 15.0 mph 21.9 mph N/A Fog Fog
7:15 AM 46.4 °F 39.8 °F 46.4 °F 100% 29.67 in 0.2 mi West 16.1 mph - N/A Fog Fog
7:35 AM 48.2 °F - 48.2 °F 100% 29.68 in 1.8 mi WNW 11.5 mph - N/A   Overcast
7:55 AM 48.2 °F - 48.2 °F 100% 29.70 in 5.0 mi WNW 11.5 mph - N/A   Overcast
8:15 AM 48.2 °F - 48.2 °F 100% 29.71 in 6.0 mi WNW 13.8 mph 23.0 mph N/A   Overcast
8:35 AM 48.2 °F - 48.2 °F 100% 29.69 in 7.0 mi WNW 12.7 mph 17.3 mph N/A   Overcast
8:55 AM 48.2 °F - 48.2 °F 100% 29.68 in 10.0 mi West 6.9 mph - N/A   Mostly Cloudy
9:15 AM 50.0 °F - 50.0 °F 100% 29.66 in 10.0 mi Calm Calm - N/A   Partly Cloudy
9:35 AM 53.6 °F - 50.0 °F 88% 29.70 in 10.0 mi NW 19.6 mph 24.2 mph N/A   Clear
9:55 AM 55.4 °F - 50.0 °F 82% 29.71 in 10.0 mi West 11.5 mph 18.4 mph N/A   Clear
10:15 AM 60.8 °F - 50.0 °F 68% 29.71 in 10.0 mi WNW 19.6 mph 27.6 mph N/A   Clear
10:35 AM 62.6 °F - 50.0 °F 63% 29.71 in 10.0 mi NW 19.6 mph 24.2 mph N/A   Clear
10:55 AM 60.8 °F - 50.0 °F 68% 29.72 in 10.0 mi NW 17.3 mph 25.3 mph N/A   Mostly Cloudy
11:15 AM 60.8 °F - 50.0 °F 68% 29.73 in 10.0 mi WNW 18.4 mph 26.5 mph N/A   Mostly Cloudy
11:35 AM 59.0 °F - 50.0 °F 72% 29.75 in 10.0 mi WNW 23.0 mph 29.9 mph N/A   Mostly Cloudy
11:55 AM 59.0 °F - 48.2 °F 67% 29.76 in 10.0 mi West 18.4 mph 28.8 mph N/A   Scattered Clouds
12:15 PM 59.0 °F - 48.2 °F 67% 29.76 in 10.0 mi WNW 12.7 mph 27.6 mph N/A   Clear
12:35 PM 60.8 °F - 50.0 °F 68% 29.76 in 10.0 mi NW 16.1 mph 21.9 mph N/A   Partly Cloudy
12:55 PM 62.6 °F - 50.0 °F 63% 29.77 in 10.0 mi WNW 13.8 mph 19.6 mph N/A   Partly Cloudy
1:15 PM 62.6 °F - 48.2 °F 59% 29.77 in 10.0 mi WNW 15.0 mph 21.9 mph N/A   Partly Cloudy
1:35 PM 64.4 °F - 46.4 °F 52% 29.77 in 10.0 mi WNW 15.0 mph 24.2 mph N/A   Partly Cloudy
1:55 PM 64.4 °F - 46.4 °F 52% 29.77 in 10.0 mi NW 17.3 mph 25.3 mph N/A   Partly Cloudy
2:15 PM 64.4 °F - 46.4 °F 52% 29.78 in 10.0 mi WNW 12.7 mph 19.6 mph N/A   Clear
2:35 PM 64.4 °F - 46.4 °F 52% 29.78 in 10.0 mi NW 12.7 mph - N/A   Clear
2:55 PM 66.2 °F - 44.6 °F 46% 29.78 in 10.0 mi WNW 13.8 mph 25.3 mph N/A   Partly Cloudy
3:15 PM 66.2 °F - 44.6 °F 46% 29.79 in 10.0 mi NW 12.7 mph 19.6 mph N/A   Partly Cloudy
3:35 PM 66.2 °F - 44.6 °F 46% 29.79 in 10.0 mi NW 11.5 mph 16.1 mph N/A   Partly Cloudy
3:55 PM 66.2 °F - 44.6 °F 46% 29.79 in 10.0 mi West 13.8 mph 17.3 mph N/A   Partly Cloudy
4:15 PM 64.4 °F - 42.8 °F 45% 29.79 in 10.0 mi NNW 11.5 mph 18.4 mph N/A   Scattered Clouds
4:35 PM 62.6 °F - 42.8 °F 48% 29.80 in 10.0 mi NNW 10.4 mph - N/A   Scattered Clouds
4:55 PM 66.2 °F - 44.6 °F 46% 29.80 in 10.0 mi NNW 8.1 mph - N/A   Partly Cloudy
5:15 PM 68.0 °F - 39.2 °F 35% 29.80 in 10.0 mi WNW 12.7 mph 17.3 mph N/A   Clear
5:35 PM 66.2 °F - 41.0 °F 40% 29.81 in 10.0 mi NNW 19.6 mph 23.0 mph N/A   Clear
5:55 PM 64.4 °F - 41.0 °F 42% 29.82 in 10.0 mi NW 16.1 mph 23.0 mph N/A   Clear
6:15 PM 64.4 °F - 41.0 °F 42% 29.82 in 10.0 mi North 13.8 mph 23.0 mph N/A   Clear
6:35 PM 64.4 °F - 41.0 °F 42% 29.83 in 10.0 mi North 10.4 mph - N/A   Clear
6:55 PM 62.6 °F - 41.0 °F 45% 29.83 in 10.0 mi North 10.4 mph - N/A   Clear
7:15 PM 62.6 °F - 41.0 °F 45% 29.85 in 10.0 mi NNW 12.7 mph 16.1 mph N/A   Clear
7:35 PM 62.6 °F - 41.0 °F 45% 29.86 in 10.0 mi NNW 10.4 mph 18.4 mph N/A   Clear
7:55 PM 60.8 °F - 41.0 °F 48% 29.87 in 10.0 mi NNW 8.1 mph - N/A   Clear
8:15 PM 59.0 °F - 42.8 °F 55% 29.89 in 10.0 mi NNW 16.1 mph 25.3 mph N/A   Clear
8:35 PM 57.2 °F - 42.8 °F 59% 29.92 in 10.0 mi NW 11.5 mph 21.9 mph N/A   Scattered Clouds
8:55 PM 55.4 °F - 42.8 °F 63% 29.92 in 10.0 mi NW 9.2 mph - N/A   Scattered Clouds
9:15 PM 53.6 °F - 44.6 °F 72% 29.92 in 10.0 mi NW 5.8 mph - N/A   Clear
9:35 PM 53.6 °F - 42.8 °F 67% 29.92 in 10.0 mi WNW 6.9 mph - N/A   Clear
9:55 PM 55.4 °F - 41.0 °F 58% 29.94 in 10.0 mi West 17.3 mph - N/A   Mostly Cloudy
10:15 PM 55.4 °F - 39.2 °F 54% 29.95 in 10.0 mi WNW 10.4 mph - N/A   Partly Cloudy
10:35 PM 53.6 °F - 37.4 °F 54% 29.96 in 10.0 mi WNW 13.8 mph 18.4 mph N/A   Partly Cloudy
10:55 PM 53.6 °F - 39.2 °F 58% 29.96 in 10.0 mi West 10.4 mph - N/A   Partly Cloudy
11:15 PM 53.6 °F - 37.4 °F 54% 29.97 in 10.0 mi West 16.1 mph 21.9 mph N/A   Clear
11:35 PM 51.8 °F - 35.6 °F 54% 29.97 in 10.0 mi WNW 10.4 mph 19.6 mph N/A   Clear
11:55 PM 50.0 °F - 37.4 °F 62% 29.97 in 10.0 mi WNW 8.1 mph - N/A   Clear